Location: Noulens
(43.8099°N, 0.1664°E)
Time: 07:58:54
(UTC+00:00)

Cosmos 1346 Rocket - Pass Details

Date: 07 June 2020
Orbit: 531 x 548 km, 81.2° (Epoch: 07 July)

Event Time Altitude Azimuth Distance (km) Brightness Sun altitude
Rises 03:37:47 0° 171° (S) 2,696 6.0 -6.6°
Reaches altitude 10° 03:40:01 10° 163° (SSE) 1,806 5.2 -6.3°
Maximum altitude 03:43:45 39° 94° (E) 822 4.2 -5.8°
Drops below altitude 10° 03:47:28 10° 25° (NNE) 1,811 6.7 -5.2°
Sets 03:49:43 0° 18° (NNE) 2,705 7.4 -4.9°
